Location: Ammerl�gen
(47.2167°N, 9.6000°E)
Time: 06:22:38
(UTC+00:00)

IGS 5A - Pass Details

Date: 21 April 2021
Orbit: 583 x 588 km, 97.6° (Epoch: 06 May)

Event Time Altitude Azimuth Distance (km) Brightness Sun altitude
Exits shadow 19:47:43 20° 152° (SSE) 1,352 4.8 -14.1°
Maximum altitude 19:50:26 67° 74° (ENE) 639 3.4 -14.5°
Drops below altitude 10° 19:54:33 10° 352° (N) 1,916 6.7 -15.1°
Sets 19:56:44 0° 350° (N) 2,821 7.7 -15.3°
